Miscellaneous Local Product
Issued by NWS North Platte, NE

Home | Current Version | Previous Version | Text Only | Print | Product List | Glossary On
Versions: 1 2 3 4 5 6 7 8 9 10 11 12 13 14 15 16 17 18 19 20 21 22 23 24 25 26 27 28 29 30 31 32 33 34 35 36 37 38 39 40 41 42 43 44 45 46 47 48 49 50
000
AXUS43 KLBF 041610
MISLBF


WESTERN AND NORTH CENTRAL NEBRASKA HOURLY WEATHER ROUNDUP
NATIONAL WEATHER SERVICE NORTH PLATTE NE
1100 AM CDT SAT JUL 04 2015

***STATIONS NOT REPORTING VARIABLES SUCH AS SKY/WEATHER OR
PRESSURE ARE PROVIDED BY THE NEBRASKA DEPARTMENT OF
ROADS...RAWS...AND APRS NETWORKS...AND ARE NOT UNDER
NATIONAL WEATHER SERVICE QUALITY CONTROL***

...OBSERVATIONS IN AND NEAR THE EASTERN PANHANDLE OF NEBRASKA...

CITY           SKY/WX    TMP DP  RH WIND       PRES   REMARKS
PINE RIDGE     SUNNY     79  65  62 S10       29.89F
CHADRON        SUNNY     80  63  55 SW8       29.88F
ALLIANCE       SUNNY     75  63  66 S13       29.93F
SIDNEY         SUNNY     78  60  53 S12       29.98S
WHITECLAY        N/A     78  63  58 S10         N/A
CRESCENT LAKE    N/A     78  65  63 S8          N/A
BIG SPRINGS      N/A     80  64  58 SE7         N/A
$$

...OBSERVATIONS IN NORTH CENTRAL NEBRASKA...

CITY           SKY/WX    TMP DP  RH WIND       PRES   REMARKS
VALENTINE      SUNNY     80  62  54 S16       29.91F
THEDFORD       SUNNY     79  64  60 S16       29.95F
AINSWORTH      MOSUNNY   78  63  60 S12       29.94S
O`NEILL        PTSUNNY   76  66  71 S9        29.95F
ORD            PTSUNNY   76  62  62 S14       29.95F
BROKEN BOW     SUNNY     78  65  63 S12       29.96F
VALENTINE NWR    N/A     76  64  65 S13         N/A
SPRINGVIEW       N/A     80  64  58 SW10G17     N/A
HALSEY           N/A     75  62  64 S8G15       N/A
BREWSTER         N/A     82  64  54 S16         N/A
ROSE             N/A     88  76  68 S14         N/A  HX  98
NEWPORT          N/A     79  65  62 S13         N/A
SARGENT          N/A     77  67  71 CALM        N/A
CHAMBERS         N/A     80  68  67 SW3         N/A
EWING            N/A     74  67  78 S7          N/A
$$

...OBSERVATIONS IN SOUTHWEST NEBRASKA AND FAR NORTHEAST COLORADO...

CITY           SKY/WX    TMP DP  RH WIND       PRES   REMARKS
WRAY           FAIR      82  60  46 SE13      29.96S
HOLYOKE        FAIR      79  63  57 S13       29.96S
IMPERIAL       MOSUNNY   80  61  52 S13       29.95F
OGALLALA       MOSUNNY   78  64  61 SE8       29.95S
NORTH PLATTE   SUNNY     80  62  54 S13       29.94F
MCCOOK         MOSUNNY   83  63  50 SE12      29.95F
LEXINGTON      SUNNY     79  64  60 S14       29.97F
PAXTON           N/A     80  65  61 S12         N/A
GOTHENBURG       N/A     76  60  56 S8          N/A
CALLAWAY         N/A     77  69  75 S13         N/A
$$

...NORTH PLATTE AREA...

CITY           SKY/WX    TMP DP  RH WIND       PRES   REMARKS
AIRPORT        SUNNY     80  62  54 S13       29.94F
DOWNTOWN         N/A     79  65  62 SE5G14      N/A
HILLCREST        N/A     77  64  63 S12G21      N/A
$$

...SOME WEATHER OBSERVATIONS FROM AROUND THE REGION...

CITY           SKY/WX    TMP DP  RH WIND       PRES   REMARKS
DENVER         MOSUNNY   79  58  48 W6        30.03S
LARAMIE        LGT RAIN  72  42  34 N10G30    30.16S
CHEYENNE       SUNNY     80  50  34 VRB3      30.06S
SCOTTSBLUFF    SUNNY     77  62  59 VRB6      29.94S
RAPID CITY     SUNNY     79  66  64 S8        29.85S
PIERRE         SUNNY     79  66  64 S8        29.83F
WINNER         FAIR      82  61  48 S13       29.88F
SIOUX FALLS    MOSUNNY   75  65  70 S12       29.95F
OMAHA          MOSUNNY   75  59  57 SE7       30.00F
GRAND ISLAND   PTSUNNY   75  64  68 S15       29.99S
KANSAS CITY    PTSUNNY   75  61  61 S5        30.03S
WICHITA        MOSUNNY   80  65  59 SE9       30.00F
HAYS           SUNNY     81  63  54 S15G21    29.99F
LIBERAL        SUNNY     81  63  54 S12       30.02F
GOODLAND       SUNNY     79  62  56 S18G24    29.97F
$$



USA.gov is the U.S. government's official web portal to all federal, state and local government web resources and services.